Lapse_Rate
5.9 5.8 5.7 5.9 5.7 5.7 5.6 5.7 5.5 5.4 5.9 6.2 6.0 5.9 5.8 5.6 5.5 5.2 4.9 4.4 3.9 3.6 3.3 3.1 2.7 2.6 2.7 3.0 3.6 4.4 4.6 4.7 4.8 5.1 5.2 5.1 5.1 5.1
5.7 5.7 5.8 5.7 5.7 5.8 5.7 5.6 5.5 5.4 5.5 5.6 5.6 5.6 5.4 5.0 4.6 4.2 3.8 3.5 3.3 3.0 2.6 2.3 2.6 3.2 3.7 4.2 4.9 5.3 5.7 5.8 5.8 5.7 5.6 5.5 5.4 5.2
5.8 5.7 5.8 5.8 5.9 5.7 5.7 5.6 5.5 5.4 5.6 5.9 5.6 5.2 4.8 4.3 4.1 3.6 3.0 2.9 3.0 2.6 2.7 3.6 4.0 4.2 4.6 5.1 5.2 5.3 5.6 5.8 5.9 6.1 6.1 6.0 5.7 5.5
5.6 5.8 5.8 5.8 5.7 5.6 5.5 5.5 5.5 5.4 5.3 5.5 4.9 4.6 4.1 3.7 3.3 2.8 2.5 2.7 3.1 3.7 4.3 4.9 4.8 4.7 4.9 5.1 5.1 5.4 5.7 5.9 6.1 6.3 6.2 6.2 5.9 5.7
5.9 5.8 5.8 5.7 5.6 5.5 5.5 5.5 5.4 5.3 4.8 4.6 4.6 3.7 3.4 3.1 2.6 2.5 2.7 3.8 4.7 4.9 4.9 4.7 4.5 4.7 4.8 5.0 5.1 5.0 5.1 5.3 5.6 5.8 5.9 5.8 5.7 5.5
5.8 5.8 5.7 5.6 5.6 5.6 5.6 5.5 5.2 4.9 4.6 4.3 3.7 3.4 3.1 2.6 2.2 3.0 4.3 4.9 5.1 4.9 5.0 4.9 4.7 4.8 4.7 4.6 4.7 4.5 4.2 4.6 5.1 5.3 5.5 5.4 5.4 5.2
5.7 5.6 5.5 5.4 5.5 5.5 5.4 5.2 4.9 4.4 4.1 3.8 3.3 3.2 2.7 2.6 3.2 4.2 4.7 4.7 5.2 5.2 4.9 5.5 5.0 5.3 5.3 5.0 4.8 4.3 4.1 4.5 4.8 4.9 4.9 5.0 5.1 5.2
5.6 5.5 5.4 5.5 5.3 5.3 5.0 4.6 4.2 3.8 3.5 3.0 3.0 2.9 3.0 3.9 4.2 4.2 4.3 4.5 5.2 5.5 4.8 5.5 4.8 5.7 5.5 5.6 5.2 4.8 4.6 4.5 4.7 4.8 4.6 4.7 5.0 5.2
5.5 5.5 5.4 5.4 5.3 5.1 4.8 4.4 3.9 3.5 2.9 2.6 2.7 3.2 4.4 4.4 4.1 4.1 4.4 4.5 4.9 5.0 4.4 4.9 5.1 6.0 5.8 6.1 5.2 5.1 5.0 4.8 4.9 5.0 5.0 4.8 5.0 5.4
5.4 5.3 5.5 5.3 5.0 4.7 4.4 4.0 3.7 3.3 2.8 3.0 3.9 4.6 4.4 4.3 4.2 4.0 4.3 4.3 4.9 5.1 4.6 4.5 5.5 6.3 6.5 6.5 5.7 5.5 5.1 5.1 5.0 5.2 5.5 5.6 5.6 5.9
5.4 5.3 5.1 4.8 4.4 4.3 3.9 3.7 3.6 3.3 3.4 4.2 4.7 4.5 4.3 4.4 4.3 4.3 4.4 4.6 5.4 5.9 5.5 5.1 6.1 6.5 7.1 7.1 6.4 6.0 5.8 5.6 5.6 5.6 5.8 5.8 5.9 5.9
5.2 4.9 4.6 4.5 4.2 3.7 3.4 3.5 3.5 3.7 4.7 5.1 4.9 4.8 4.7 4.6 4.6 4.6 4.8 5.2 5.5 5.9 5.3 5.5 6.1 6.1 7.3 7.7 7.3 6.4 6.2 5.7 5.8 5.9 5.8 5.8 5.7 5.7
5.1 4.9 4.4 4.1 3.7 3.4 3.3 3.3 3.6 4.7 5.0 4.9 4.9 4.8 4.8 4.9 4.9 4.9 5.3 5.4 5.7 5.8 5.4 5.3 6.1 6.4 6.1 6.8 7.6 6.7 6.2 6.4 6.4 6.4 6.0 5.7 5.8 5.8
4.8 4.4 4.0 3.8 3.5 3.3 3.3 3.7 4.6 4.9 4.9 4.9 4.9 5.0 5.1 5.2 5.3 5.2 5.4 5.5 5.9 5.6 5.6 5.5 5.8 6.0 6.2 6.3 6.7 7.2 6.3 6.4 6.5 6.7 6.2 6.1 6.1 6.3
4.3 3.9 3.7 3.5 3.5 3.6 3.9 4.7 5.0 4.9 5.0 5.1 5.1 5.1 5.2 5.2 5.3 5.3 5.4 5.7 6.3 6.1 5.8 5.5 5.7 5.9 5.9 5.9 6.3 6.8 6.4 6.9 6.3 6.0 5.8 6.0 6.1 6.1
4.0 3.8 3.8 3.7 3.6 4.0 4.8 5.0 4.8 4.9 5.0 5.1 5.2 5.2 5.3 5.5 5.5 5.5 5.7 6.0 6.2 6.6 6.3 5.7 5.7 5.6 5.7 5.8 5.9 6.1 5.7 5.9 6.2 5.9 5.9 6.2 6.0 5.8
3.9 3.9 3.7 3.6 4.1 4.9 5.1 4.9 4.8 4.9 5.1 5.0 5.0 5.2 5.5 5.7 5.9 6.1 6.2 6.3 6.2 6.2 6.4 6.3 6.0 5.7 5.7 5.5 5.9 5.5 5.5 5.8 5.6 5.6 5.7 5.9 6.0 5.8
3.8 3.7 3.6 4.3 4.9 5.2 5.1 5.1 5.1 5.1 5.1 5.1 5.1 5.3 5.6 5.9 6.3 6.5 6.5 6.5 6.3 6.3 6.1 5.9 6.0 6.2 6.3 6.0 5.1 5.5 5.2 5.3 5.5 5.6 5.4 5.6 6.1 5.8
3.7 3.6 4.6 5.0 5.2 5.0 5.1 5.2 5.3 5.2 5.2 5.1 5.3 5.5 5.8 6.4 6.5 6.7 6.7 6.7 6.7 6.4 6.0 5.6 5.7 5.6 6.2 6.9 6.1 4.8 4.9 5.4 5.3 5.8 5.6 5.7 5.7 5.8
3.7 4.6 5.0 5.2 5.1 5.1 5.3 5.3 5.3 5.3 5.3 5.3 5.7 6.1 6.3 6.5 6.7 6.8 6.8 6.7 6.7 6.6 6.3 5.6 5.5 5.6 5.6 5.8 6.3 6.1 4.6 4.8 5.1 5.7 5.9 5.8 5.5 5.7
4.5 4.8 5.2 5.2 5.1 5.3 5.4 5.4 5.4 5.4 5.4 5.8 6.2 6.4 6.6 6.7 6.9 6.8 6.8 6.6 6.3 6.2 6.0 5.8 5.7 5.5 5.4 5.3 5.6 6.0 5.9 5.0 4.8 4.8 5.1 5.3 5.7 6.0
4.7 5.1 5.1 5.2 5.4 5.5 5.6 5.6 5.6 5.6 5.8 6.1 6.3 6.5 6.7 6.9 7.0 7.0 6.7 6.4 6.4 6.2 5.9 5.8 5.7 5.5 5.1 5.2 5.5 5.7 5.7 5.6 5.1 4.7 4.6 4.8 5.2 6.0
5.0 5.1 5.2 5.3 5.5 5.6 5.8 5.7 5.6 5.8 5.9 6.1 6.3 6.5 6.8 6.9 6.7 6.3 6.2 6.1 6.0 5.9 5.7 5.6 5.3 5.0 5.0 5.2 5.2 5.2 5.0 5.0 5.1 5.3 4.8 4.8 4.9 5.1
Wind_Speed
1 1 2 2 1 1 1 1 2 6 9 2 3 11 12 16 16 25 23 25 31 34 33 35 35 35 36 35 34 33 33 32 32 33 33 34 34 35
2 1 2 2 2 2 2 2 2 4 8 5 6 5 10 13 23 24 23 31 31 32 33 33 38 32 32 33 34 35 34 33 33 33 33 35 34 35
2 2 3 3 3 3 3 3 3 3 8 9 7 7 6 11 14 16 23 18 22 28 34 31 32 35 36 34 35 35 35 34 34 34 33 33 32 34
3 3 4 2 4 4 3 5 3 4 7 13 9 9 10 11 12 13 12 19 23 25 27 35 34 35 35 34 35 35 34 34 33 34 35 33 34 34
4 4 4 4 4 3 3 3 3 6 6 8 11 9 10 10 12 10 13 11 15 27 28 33 32 34 35 33 34 35 36 35 33 33 32 32 32 32
5 4 4 4 5 4 5 5 6 6 7 8 9 10 9 9 8 9 10 8 12 14 24 28 28 32 31 33 35 33 32 32 31 30 31 31 31 31
6 5 4 6 14 12 6 4 5 5 6 7 10 11 11 9 9 8 10 11 14 11 8 12 9 12 16 25 27 31 31 32 32 31 30 30 29 29
6 5 5 8 9 14 17 18 16 10 10 9 10 11 11 10 8 8 12 12 12 7 5 14 10 11 11 13 27 33 33 32 32 31 29 28 27 28
6 5 5 5 10 6 11 18 14 20 20 16 14 13 14 10 8 12 13 11 13 11 10 14 12 12 11 14 29 32 35 32 28 26 25 25 27 28
6 7 6 6 7 11 8 4 6 6 9 9 12 12 9 14 14 12 12 11 12 11 9 13 12 14 12 11 30 33 29 26 25 26 29 26 27 28
6 6 8 8 13 20 10 8 10 9 15 24 26 28 29 30 21 11 9 10 13 12 10 10 9 12 13 13 11 21 23 27 27 27 27 27 27 29
6 6 15 14 21 21 14 12 9 10 11 10 10 13 16 10 22 10 9 9 10 12 5 6 11 8 7 6 4 10 8 21 26 28 26 28 27 12
4 5 5 18 22 24 24 9 11 14 14 8 9 8 9 9 8 8 9 8 10 11 15 10 9 10 7 9 9 10 11 12 10 15 24 25 25 23
7 5 7 21 25 24 17 20 21 18 6 7 8 9 9 9 9 10 12 11 12 14 16 13 9 11 12 13 14 10 12 12 10 11 11 18 25 26
7 15 24 23 22 14 16 20 18 6 7 8 8 9 8 9 11 11 12 12 14 14 14 14 11 12 10 12 13 14 14 13 12 10 11 11 11 11
13 8 15 18 16 14 11 9 5 6 8 9 9 10 10 9 10 9 10 10 10 11 11 11 10 11 11 11 12 14 13 10 12 12 11 10 11 10
14 4 6 5 7 7 7 7 7 7 8 9 9 10 10 10 10 10 9 10 10 11 12 11 9 12 12 14 13 13 12 12 11 12 12 13 11 10
6 4 6 6 7 8 8 9 8 11 9 9 9 9 10 10 10 10 9 9 10 11 10 11 12 11 10 9 16 10 10 11 12 13 13 11 12 10
4 5 6 6 7 7 8 8 10 10 11 9 9 10 10 9 13 10 10 9 10 10 11 10 10 9 12 13 11 10 9 12 13 13 10 10 11 12
4 5 6 6 7 8 8 9 10 10 10 9 10 10 10 9 10 10 10 11 11 10 10 10 9 9 10 11 15 16 16 11 10 12 13 11 12 23
5 6 6 7 7 8 9 9 10 10 11 10 10 10 10 9 10 10 10 20 19 11 12 11 11 23 11 11 9 12 12 16 15 12 12 11 12 10
6 7 7 7 8 8 9 9 10 11 10 10 10 10 10 9 10 11 10 11 11 10 11 9 10 9 9 9 12 15 12 12 16 18 21 19 9 7
7 8 8 8 8 9 9 9 10 10 10 10 10 10 10 10 10 10 10 10 10 10 9 11 10 9 9 10 14 11 15 15 10 12 12 19 19 18
Wind_Direction
205 252 218 264 291 283 282 222 225 299 306 283 311 331 322 315 320 312 303 299 302 302 303 303 299 303 301 296 296 293 294 291 288 285 283 281 279 277
177 254 313 289 315 303 270 264 251 257 286 305 297 293 298 309 306 300 296 298 296 299 299 300 301 298 298 297 296 294 292 292 290 287 286 284 283 280
304 280 280 286 279 285 291 278 270 265 285 296 295 295 297 300 293 288 298 296 293 297 300 299 301 303 299 300 296 295 294 292 290 288 287 284 283 280
293 297 287 311 317 304 294 286 284 281 286 297 310 309 299 300 297 299 293 294 294 292 302 303 302 302 301 301 297 295 291 290 292 291 287 287 284 279
277 273 280 286 291 288 293 305 295 293 288 296 300 297 298 298 296 291 294 288 296 302 301 298 301 297 301 300 299 302 301 295 293 292 290 287 284 282
304 294 291 281 273 275 281 267 274 281 285 284 294 297 292 296 288 296 301 303 297 297 295 292 298 296 298 302 299 297 296 295 290 288 286 285 284 280
315 306 307 301 303 299 298 271 265 273 285 292 293 302 300 304 297 302 299 301 297 293 290 294 298 296 291 293 292 294 293 292 293 291 287 285 282 279
306 304 296 295 298 306 304 302 302 305 309 301 298 298 297 298 302 299 297 301 297 297 300 296 294 290 289 290 291 296 298 294 297 295 290 288 286 282
292 294 292 291 303 275 283 295 299 297 301 303 300 298 299 300 291 292 287 288 293 296 299 293 301 293 293 291 294 294 299 297 295 292 290 288 286 284
304 295 295 296 290 304 289 266 270 271 281 286 291 293 291 295 294 292 294 293 290 293 290 288 299 293 296 291 293 294 294 292 296 301 299 293 288 284
310 328 319 305 306 308 317 301 301 294 298 302 301 301 304 306 306 311 305 304 298 301 302 290 297 298 298 289 280 285 295 303 298 299 297 296 290 293
302 300 302 314 316 312 312 311 306 307 298 291 306 301 298 292 306 302 296 294 298 302 290 310 301 312 304 264 284 296 283 292 295 295 296 297 294 290
286 298 291 308 310 315 317 320 304 302 311 312 299 294 300 296 295 294 294 290 292 284 289 300 296 294 278 298 294 295 292 290 290 293 290 291 292 293
308 300 295 312 320 318 320 312 310 322 323 303 300 299 300 300 300 298 293 283 273 273 286 283 279 285 287 288 293 297 295 292 284 286 287 284 287 290
313 311 321 320 319 317 314 321 327 320 307 302 299 298 298 295 297 296 294 287 281 278 278 274 268 277 275 280 286 290 295 299 290 279 286 284 282 289
299 309 322 320 320 325 324 319 316 309 308 305 299 298 299 300 298 296 295 298 292 295 287 262 263 271 276 275 280 287 289 285 294 290 285 282 287 279
327 327 317 320 328 322 319 313 311 309 307 305 300 300 299 298 294 298 292 294 293 299 301 306 288 272 269 269 282 282 287 288 288 292 295 292 288 283
328 325 323 323 319 318 316 314 310 308 303 299 296 294 295 296 297 296 299 296 292 298 296 298 300 298 294 267 261 277 286 286 291 295 289 281 291 294
340 321 314 315 313 313 308 305 304 304 301 297 296 295 293 291 303 299 297 295 294 293 292 292 292 296 302 304 304 273 293 292 294 292 291 290 290 293
311 311 310 311 311 308 306 305 303 303 303 300 296 296 298 296 297 296 298 297 294 294 297 298 295 293 298 307 305 302 289 282 292 296 300 297 283 282
316 312 308 307 306 304 302 300 298 300 303 305 299 298 299 298 294 294 293 300 304 301 298 301 301 298 299 295 292 301 306 295 290 295 299 297 299 294
315 309 307 304 303 301 300 298 299 301 303 300 298 298 297 295 294 296 296 297 297 294 295 294 301 306 303 299 298 300 305 309 310 301 294 287 290 293
309 307 306 304 303 299 298 297 297 298 299 298 298 299 299 300 299 294 293 293 293 294 304 308 311 311 305 301 301 302 306 310 312 317 309 306 304 306